AKDT,Max TemperatureF,Mean TemperatureF,Min TemperatureF,Max Dew PointF,MeanDew PointF,Min DewpointF,Max Humidity, Mean Humidity, Min Humidity, Max Sea Level PressureIn, Mean Sea Level PressureIn, Min Sea Level PressureIn, Max VisibilityMiles, Mean VisibilityMiles, Min VisibilityMiles, Max Wind SpeedMPH, Mean Wind SpeedMPH, Max Gust SpeedMPH,PrecipitationIn, CloudCover, Events, WindDirDegrees
2013-4-1,37,34,32,34,32,30,100,91,79,30.04,29.87,29.79,10,4,0,28,3,36,0.36,8,Fog-Rain-Snow,206
2013-4-2,42,38,33,32,30,28,82,73,60,30.27,30.14,29.94,10,10,10,21,16,33,0.00,6,,202
2013-4-3,42,36,30,34,30,23,96,81,55,30.29,30.24,30.16,10,10,6,13,2,,0.00,6,Snow,239
2013-4-4,37,32,28,23,7,-3,81,38,20,30.19,30.09,29.90,10,10,10,22,10,30,0.00,1,,28
2013-4-5,34,28,23,6,2,-1,37,33,27,29.89,29.75,29.64,10,10,10,22,14,36,0.00,0,,33
2013-4-6,36,31,26,30,20,5,89,65,35,29.73,29.63,29.60,10,7,2,22,9,32,0.00,8,Snow,28
2013-4-7,48,40,33,35,31,29,93,74,46,29.91,29.85,29.74,10,10,9,18,4,24,0.00,6,Rain,220
2013-4-8,46,39,33,36,32,29,96,79,58,29.91,29.75,29.57,10,8,3,20,8,21,0.51,8,Rain-Snow,210
2013-4-9,45,38,32,37,31,17,100,86,40,29.60,29.24,29.06,10,5,1,43,5,55,1.05,8,Rain-Snow,203
2013-4-10,37,36,34,26,23,15,73,60,43,29.95,29.80,29.65,10,10,9,33,23,41,0.00,7,Snow,210
2013-4-11,37,36,33,27,24,16,75,63,46,30.05,30.00,29.91,10,10,2,30,19,36,0.00,7,Snow,206
2013-4-12,44,38,33,26,16,9,75,42,29,29.96,29.84,29.79,10,10,10,17,11,29,0.00,7,,26
2013-4-13,45,38,32,20,10,4,61,33,24,30.20,30.11,29.98,10,10,10,20,11,29,0.00,1,,28
2013-4-14,48,40,30,20,13,8,66,35,23,30.37,30.29,30.20,10,10,10,23,10,29,0.00,0,,28
2013-4-15,46,36,27,26,21,13,72,53,27,30.39,30.36,30.33,10,10,9,22,5,,0.00,2,,200
2013-4-16,41,36,33,34,30,24,96,78,55,30.36,30.20,30.01,10,8,2,20,8,29,0.12,8,Rain-Snow,198
2013-4-17,43,38,32,36,33,29,100,89,60,30.05,29.98,29.92,10,6,2,23,2,17,0.23,8,Rain-Snow,214
2013-4-18,41,38,34,32,28,15,85,69,46,30.05,29.99,29.94,10,9,2,16,8,21,0.00,7,Snow,178
2013-4-19,44,36,28,14,11,7,54,37,23,30.41,30.23,30.07,10,10,10,14,8,20,0.00,3,,29
2013-4-20,46,38,30,19,12,8,61,37,24,30.50,30.47,30.44,10,10,10,21,6,26,0.00,0,,31
2013-4-21,45,35,25,27,21,18,78,57,39,30.53,30.49,30.46,10,10,10,18,5,21,0.00,1,,212
2013-4-22,41,36,30,33,29,23,86,74,64,30.69,30.60,30.54,10,10,6,22,7,28,0.00,7,,211
2013-4-23,45,40,34,33,31,29,89,71,53,30.69,30.57,30.39,10,10,10,20,5,25,0.00,5,,206
2013-4-24,45,42,39,37,36,32,87,79,67,30.36,30.01,29.71,10,9,6,26,18,37,0.19,8,Rain,201
2013-4-25,41,37,33,37,34,32,100,91,86,29.69,29.59,29.55,10,6,3,13,4,21,1.16,8,Rain-Snow,76
2013-4-26,39,36,33,34,25,20,93,69,52,29.57,29.50,29.47,10,6,1,16,7,23,0.00,8,Snow,33
2013-4-27,37,34,32,31,28,21,89,79,52,29.76,29.69,29.50,10,5,1,13,2,16,0.01,8,Snow,64
2013-4-28,37,34,30,24,9,-1,64,37,25,30.08,29.84,29.66,10,10,10,28,16,36,0.01,4,,32
2013-4-29,41,32,26,17,6,-1,57,34,19,30.26,30.23,30.11,10,10,10,15,9,22,0.00,0,,43
2013-4-30,39,34,30,32,26,16,86,73,56,30.25,30.19,30.09,10,7,2,30,10,39,0.00,8,Snow,208